TimeCST,TemperatureF,Dew PointF,Humidity,Sea Level PressureIn,VisibilityMPH,Wind Direction,Wind SpeedMPH,Gust SpeedMPH,PrecipitationIn,Events,Conditions,WindDirDegrees,DateUTC
12:15 AM,30.6,24.4,78,30.21,10.0,West,8.1,-,N/A,,Clear,270,2012-11-20 06:15:00
12:35 AM,31.3,24.8,77,30.21,10.0,West,3.5,-,N/A,,Clear,270,2012-11-20 06:35:00
12:55 AM,30.0,24.4,80,30.20,10.0,West,8.1,-,N/A,,Clear,270,2012-11-20 06:55:00
1:15 AM,30.0,24.3,79,30.20,10.0,West,9.2,-,N/A,,Clear,280,2012-11-20 07:15:00
1:35 AM,30.7,24.4,77,30.20,10.0,West,6.9,-,N/A,,Clear,260,2012-11-20 07:35:00
1:55 AM,30.7,24.3,77,30.20,10.0,West,8.1,-,N/A,,Clear,260,2012-11-20 07:55:00
2:15 AM,30.7,24.3,77,30.19,10.0,West,8.1,-,N/A,,Clear,270,2012-11-20 08:15:00
2:35 AM,31.1,24.6,77,30.20,10.0,West,5.8,-,N/A,,Clear,270,2012-11-20 08:35:00
6:15 AM,30.2,23.4,76,30.17,10.0,West,9.2,-,N/A,,Clear,260,2012-11-20 12:15:00
6:35 AM,29.7,23.7,79,30.17,10.0,West,6.9,-,N/A,,Clear,270,2012-11-20 12:35:00
6:55 AM,30.2,23.7,77,30.16,10.0,West,6.9,-,N/A,,Clear,270,2012-11-20 12:55:00
7:15 AM,30.0,23.4,76,30.16,10.0,West,6.9,-,N/A,,Clear,260,2012-11-20 13:15:00
7:35 AM,32.0,24.3,73,30.16,10.0,West,10.4,-,N/A,,Clear,260,2012-11-20 13:35:00
7:55 AM,31.1,23.9,75,30.17,10.0,WSW,8.1,-,N/A,,Clear,250,2012-11-20 13:55:00
8:15 AM,30.9,23.9,75,30.17,10.0,WSW,6.9,-,N/A,,Clear,250,2012-11-20 14:15:00
8:35 AM,33.3,24.8,71,30.17,10.0,West,8.1,-,N/A,,Clear,260,2012-11-20 14:35:00
8:55 AM,35.4,26.1,69,30.17,10.0,West,6.9,-,N/A,,Clear,280,2012-11-20 14:55:00
9:15 AM,40.6,27.9,60,30.19,10.0,West,6.9,-,N/A,,Clear,270,2012-11-20 15:15:00
9:35 AM,44.8,29.3,55,30.18,10.0,West,6.9,-,N/A,,Clear,260,2012-11-20 15:35:00
9:55 AM,50.4,29.1,44,30.17,10.0,WSW,10.4,-,N/A,,Clear,250,2012-11-20 15:55:00
10:15 AM,53.4,27.5,37,30.19,10.0,WSW,12.7,-,N/A,,Clear,250,2012-11-20 16:15:00
10:35 AM,55.8,26.4,32,30.19,10.0,WSW,15.0,-,N/A,,Clear,250,2012-11-20 16:35:00
10:55 AM,57.6,23.4,27,30.19,10.0,WSW,15.0,-,N/A,,Clear,240,2012-11-20 16:55:00
11:15 AM,59.7,23.2,25,30.19,10.0,WSW,15.0,-,N/A,,Clear,240,2012-11-20 17:15:00
11:35 AM,59.9,22.8,24,30.17,10.0,WSW,17.3,21.9,N/A,,Clear,240,2012-11-20 17:35:00
11:55 AM,62.2,22.1,21,30.17,10.0,SW,13.8,18.4,N/A,,Clear,230,2012-11-20 17:55:00
12:15 PM,63.1,20.8,20,30.16,10.0,SW,16.1,-,N/A,,Clear,230,2012-11-20 18:15:00
12:35 PM,64.0,20.5,19,30.15,10.0,WSW,16.1,-,N/A,,Clear,240,2012-11-20 18:35:00
12:55 PM,64.6,18.9,17,30.13,10.0,SW,19.6,-,N/A,,Clear,230,2012-11-20 18:55:00
1:15 PM,65.7,18.7,17,30.13,10.0,SW,16.1,-,N/A,,Clear,220,2012-11-20 19:15:00
1:35 PM,66.0,17.6,16,30.12,10.0,SSW,13.8,18.4,N/A,,Clear,210,2012-11-20 19:35:00
1:55 PM,66.2,16.3,15,30.11,10.0,SW,12.7,-,N/A,,Clear,220,2012-11-20 19:55:00
2:15 PM,67.1,17.1,15,30.10,10.0,SW,16.1,-,N/A,,Clear,220,2012-11-20 20:15:00
2:35 PM,66.4,16.7,15,30.10,10.0,SW,16.1,21.9,N/A,,Clear,220,2012-11-20 20:35:00
2:55 PM,66.6,16.2,14,30.09,10.0,SW,17.3,-,N/A,,Clear,230,2012-11-20 20:55:00
3:15 PM,66.6,16.0,14,30.08,10.0,SW,12.7,19.6,N/A,,Clear,220,2012-11-20 21:15:00
3:35 PM,66.2,16.2,15,30.08,10.0,SW,12.7,18.4,N/A,,Clear,220,2012-11-20 21:35:00
3:55 PM,65.5,16.7,15,30.08,10.0,SSW,13.8,-,N/A,,Clear,210,2012-11-20 21:55:00
4:15 PM,64.9,16.5,15,30.09,10.0,SSW,11.5,-,N/A,,Clear,210,2012-11-20 22:15:00
4:35 PM,63.5,18.3,18,30.10,10.0,SSW,10.4,-,N/A,,Clear,210,2012-11-20 22:35:00
4:55 PM,60.8,20.5,21,30.10,10.0,SSW,6.9,-,N/A,,Clear,200,2012-11-20 22:55:00
5:15 PM,55.2,21.2,27,30.09,10.0,SSW,9.2,-,N/A,,Clear,200,2012-11-20 23:15:00
5:35 PM,51.3,21.7,31,30.09,10.0,SSW,6.9,-,N/A,,Clear,200,2012-11-20 23:35:00
5:55 PM,48.4,21.4,35,30.09,10.0,SSW,5.8,-,N/A,,Clear,210,2012-11-20 23:55:00
6:15 PM,47.3,22.1,37,30.09,10.0,SW,9.2,-,N/A,,Clear,220,2012-11-21 00:15:00
6:35 PM,45.5,22.1,40,30.09,10.0,SW,8.1,-,N/A,,Clear,230,2012-11-21 00:35:00
6:55 PM,44.2,22.8,43,30.09,10.0,WSW,5.8,-,N/A,,Clear,240,2012-11-21 00:55:00
7:15 PM,43.0,22.5,44,30.09,10.0,SW,8.1,-,N/A,,Clear,230,2012-11-21 01:15:00
7:35 PM,41.2,21.9,46,30.09,10.0,WSW,6.9,-,N/A,,Clear,240,2012-11-21 01:35:00
7:55 PM,38.5,22.5,53,30.08,10.0,SW,3.5,-,N/A,,Clear,220,2012-11-21 01:55:00
8:15 PM,37.2,22.5,55,30.08,10.0,SW,4.6,-,N/A,,Clear,220,2012-11-21 02:15:00
8:35 PM,37.2,23.0,56,30.08,10.0,WSW,6.9,-,N/A,,Clear,240,2012-11-21 02:35:00
8:55 PM,38.3,22.8,54,30.08,10.0,SW,6.9,-,N/A,,Clear,230,2012-11-21 02:55:00
9:15 PM,37.4,23.0,56,30.08,10.0,SW,6.9,-,N/A,,Clear,230,2012-11-21 03:15:00
9:35 PM,37.8,23.2,56,30.08,10.0,WSW,8.1,-,N/A,,Clear,250,2012-11-21 03:35:00
9:55 PM,35.8,23.0,60,30.08,10.0,WNW,6.9,-,N/A,,Clear,290,2012-11-21 03:55:00
10:15 PM,34.2,23.2,64,30.08,10.0,WNW,8.1,-,N/A,,Clear,290,2012-11-21 04:15:00
10:35 PM,35.6,23.0,60,30.08,10.0,West,6.9,-,N/A,,Clear,260,2012-11-21 04:35:00
10:55 PM,34.2,23.0,64,30.07,10.0,West,8.1,-,N/A,,Clear,280,2012-11-21 04:55:00
11:15 PM,36.1,23.4,60,30.07,10.0,West,6.9,-,N/A,,Clear,270,2012-11-21 05:15:00
11:35 PM,34.3,23.0,63,30.06,10.0,West,8.1,-,N/A,,Clear,270,2012-11-21 05:35:00
11:55 PM,34.3,23.4,64,30.06,10.0,West,8.1,-,N/A,,Clear,260,2012-11-21 05:55:00